Date String (YYYY-MM-DD hh:mm:ss) UTC,Instrument flags,Ambient pressure (hPa),Sample flow (lpm),Bypass flow (lpm),Sample temperature (°C),Ambient temperature (°C),ASC tube jacket temperature (°C),LED temperature (°C),Box temperature (°C),Sample RH (%),Span deviation,Mass concentration (μg/m³),Mass concentration (μg/m³),Mass concentration (μg/m³)
DateTimeUTC,F1_M11,P_M11,Q1_M11,Q2_M11,T1_M11,T2_M11,T3_M11,T4_M11,T5_M11,U1_M11,ZSPAN_M11,X2_M11,X0_M11,X1_M11
2022-06-27 20:00:00,,0832.7,5.01,0.00,29.1,28.2,00.0,37.7,31.1,15.5,0000.0,0004.28,0009.66,0003.64
2022-06-27 20:01:00,,0832.8,5.00,0.00,29.0,27.5,00.0,37.7,30.9,15.4,0000.0,0004.25,0009.52,0003.60
2022-06-27 20:02:00,,0832.7,5.00,0.00,29.0,26.9,00.0,37.6,30.7,15.5,0000.0,0004.16,0008.94,0003.55
2022-06-27 20:03:00,,0832.7,5.01,0.00,28.9,26.8,00.0,37.6,30.7,15.2,0000.0,0004.07,0009.09,0003.50
2022-06-27 20:04:00,,0832.7,5.00,0.00,28.9,26.9,00.0,37.6,30.7,14.2,0000.0,0003.95,0008.78,0003.46
2022-06-27 20:05:00,,0832.8,5.01,0.00,28.8,27.1,00.0,37.6,30.7,13.1,0000.0,0003.89,0008.76,0003.42
2022-06-27 20:06:00,,0832.8,5.01,0.00,28.9,27.2,00.0,37.6,30.8,13.5,0000.0,0003.84,0008.62,0003.38
2022-06-27 20:07:00,,0832.8,4.99,0.00,28.9,27.4,00.0,37.6,30.8,13.2,0000.0,0003.77,0008.40,0003.34
2022-06-27 20:08:00,,0832.8,4.99,0.00,28.9,27.6,00.0,37.6,30.9,12.9,0000.0,0003.71,0008.07,0003.31
2022-06-27 20:09:00,,0832.7,5.00,0.00,28.9,27.8,00.0,37.6,30.9,15.5,0000.0,0003.68,0007.78,0003.29
2022-06-27 20:10:00,,0832.7,5.00,0.00,29.0,27.9,00.0,37.7,31.0,16.0,0000.0,0003.73,0008.20,0003.30
2022-06-27 20:11:00,,0832.7,5.00,0.00,29.0,28.1,00.0,37.7,31.0,16.5,0000.0,0003.77,0008.74,0003.31
2022-06-27 20:12:00,,0832.6,5.01,0.00,29.0,28.2,00.0,37.7,31.1,16.9,0000.0,0003.81,0008.82,0003.35
2022-06-27 20:13:00,,0832.7,4.99,0.00,29.1,28.1,00.0,37.7,31.0,17.1,0000.0,0003.85,0009.07,0003.37
2022-06-27 20:14:00,,0832.7,5.01,0.00,29.0,27.3,00.0,37.7,30.9,17.3,0000.0,0003.90,0009.01,0003.41
2022-06-27 20:15:00,,0832.6,5.00,0.00,28.9,26.8,00.0,37.6,30.7,17.6,0000.0,0004.00,0009.77,0003.46
2022-06-27 20:16:00,,0832.6,5.01,0.00,28.9,26.8,00.0,37.6,30.7,17.7,0000.0,0004.14,0010.59,0003.53
2022-06-27 20:17:00,,0832.6,5.00,0.00,28.9,26.9,00.0,37.6,30.7,18.0,0000.0,0004.20,0010.67,0003.60
2022-06-27 20:18:00,,0832.6,4.99,0.00,28.9,27.1,00.0,37.6,30.7,17.9,0000.0,0004.28,0010.83,0003.67
2022-06-27 20:19:00,,0832.6,4.99,0.00,28.9,27.3,00.0,37.6,30.8,17.7,0000.0,0004.40,0011.18,0003.74
2022-06-27 20:20:00,,0832.6,5.01,0.00,28.9,27.5,00.0,37.6,30.8,19.4,0000.0,0004.43,0011.19,0003.78
2022-06-27 20:21:00,,0832.6,5.00,0.00,28.9,27.6,00.0,37.6,30.9,21.2,0000.0,0004.49,0010.97,0003.86
2022-06-27 20:22:00,,0832.6,4.99,0.00,28.9,27.8,00.0,37.7,31.0,20.0,0000.0,0004.61,0011.14,0003.94
2022-06-27 20:23:00,,0832.6,5.01,0.00,29.0,28.0,00.0,37.7,31.0,20.2,0000.0,0004.72,0011.49,0003.99
2022-06-27 20:24:00,,0832.6,4.99,0.00,29.0,28.1,00.0,37.7,31.1,20.3,0000.0,0004.83,0012.17,0004.07
2022-06-27 20:25:00,,0832.6,5.01,0.00,29.1,28.2,00.0,37.7,31.1,20.8,0000.0,0004.97,0012.17,0004.16
2022-06-27 20:26:00,,0832.6,5.00,0.00,29.1,28.3,00.0,37.8,31.1,21.0,0000.0,0005.10,0012.02,0004.23
2022-06-27 20:27:00,,0832.6,5.00,0.00,29.1,27.6,00.0,37.7,31.0,21.2,0000.0,0005.14,0011.32,0004.29
2022-06-27 20:28:00,,0832.6,5.00,0.00,29.0,27.0,00.0,37.7,30.8,21.0,0000.0,0005.26,0012.00,0004.37
2022-06-27 20:29:00,,0832.6,4.99,0.00,29.0,26.9,00.0,37.7,30.7,20.7,0000.0,0005.43,0013.00,0004.45
2022-06-27 20:30:00,,0832.6,5.00,0.00,28.9,27.0,00.0,37.7,30.8,20.6,0000.0,0005.56,0013.58,0004.52
2022-06-27 20:31:00,,0832.6,5.00,0.00,28.9,27.1,00.0,37.7,30.8,20.8,0000.0,0005.72,0014.58,0004.59
2022-06-27 20:32:00,,0832.6,5.00,0.00,28.9,27.3,00.0,37.7,30.8,21.1,0000.0,0005.79,0015.30,0004.63
2022-06-27 20:33:00,,0832.6,5.01,0.00,28.9,27.5,00.0,37.7,30.9,21.0,0000.0,0005.83,0015.38,0004.65
2022-06-27 20:34:00,,0832.6,4.99,0.00,28.9,27.7,00.0,37.7,30.9,20.7,0000.0,0005.86,0015.80,0004.66
2022-06-27 20:35:00,,0832.5,5.00,0.00,29.0,27.8,00.0,37.7,31.0,21.0,0000.0,0005.88,0016.14,0004.65
2022-06-27 20:36:00,,0832.5,5.01,0.00,29.0,28.0,00.0,37.7,31.0,20.7,0000.0,0005.90,0016.74,0004.63
2022-06-27 20:37:00,,0832.5,5.00,0.00,29.1,28.1,00.0,37.7,31.1,19.9,0000.0,0005.84,0016.65,0004.60
2022-06-27 20:38:00,,0832.5,4.99,0.00,29.1,28.2,00.0,37.8,31.1,19.5,0000.0,0005.80,0016.50,0004.53
2022-06-27 20:39:00,,0832.5,5.01,0.00,29.1,27.8,00.0,37.7,31.0,19.6,0000.0,0005.71,0015.91,0004.46
2022-06-27 20:40:00,,0832.4,4.99,0.00,29.0,27.1,00.0,37.7,30.9,19.8,0000.0,0005.61,0015.27,0004.41
2022-06-27 20:41:00,,0832.5,4.99,0.00,29.0,26.9,00.0,37.6,30.8,19.6,0000.0,0005.55,0015.11,0004.37
2022-06-27 20:42:00,,0832.5,5.00,0.00,28.9,26.9,00.0,37.7,30.7,18.5,0000.0,0005.38,0014.80,0004.30
2022-06-27 20:43:00,,0832.5,5.01,0.00,28.9,27.1,00.0,37.7,30.8,18.3,0000.0,0005.24,0015.39,0004.23
2022-06-27 20:44:00,,0832.5,4.99,0.00,28.9,27.2,00.0,37.7,30.8,18.4,0000.0,0005.13,0015.39,0004.15
2022-06-27 20:45:00,,0832.5,4.99,0.00,28.9,27.4,00.0,37.7,30.9,18.2,0000.0,0005.02,0015.41,0004.09
2022-06-27 20:46:00,,0832.4,5.00,0.00,28.9,27.6,00.0,37.7,30.9,17.6,0000.0,0004.92,0015.21,0004.01
2022-06-27 20:47:00,,0832.4,5.01,0.00,29.0,27.8,00.0,37.7,31.0,16.1,0000.0,0004.76,0014.26,0003.91
2022-06-27 20:48:00,,0832.5,4.99,0.00,29.0,27.9,00.0,37.7,31.0,15.9,0000.0,0004.62,0014.22,0003.81
2022-06-27 20:49:00,,0832.4,5.00,0.00,29.0,28.1,00.0,37.7,31.1,15.7,0000.0,0004.49,0014.33,0003.76
2022-06-27 20:50:00,,0832.4,5.01,0.00,29.1,28.2,00.0,37.8,31.1,15.6,0000.0,0004.39,0014.47,0003.69
2022-06-27 20:51:00,,0832.4,4.99,0.00,29.1,28.3,00.0,37.8,31.2,15.2,0000.0,0004.30,0014.14,0003.62
2022-06-27 20:52:00,,0832.4,5.01,0.00,29.1,27.8,00.0,37.7,31.0,15.3,0000.0,0004.15,0013.42,0003.55
2022-06-27 20:53:00,,0832.4,5.01,0.00,29.0,27.1,00.0,37.7,30.8,15.3,0000.0,0004.15,0013.04,0003.53
2022-06-27 20:54:00,,0832.3,5.01,0.00,29.0,26.9,00.0,37.7,30.8,15.4,0000.0,0004.13,0012.30,0003.50
2022-06-27 20:55:00,,0832.4,4.99,0.00,29.0,27.0,00.0,37.7,30.8,15.4,0000.0,0004.09,0011.98,0003.47
2022-06-27 20:56:00,,0832.4,5.00,0.00,28.9,27.1,00.0,37.7,30.8,15.1,0000.0,0004.00,0011.16,0003.43
2022-06-27 20:57:00,,0832.3,4.99,0.00,28.9,27.3,00.0,37.7,30.8,15.3,0000.0,0003.95,0010.14,0003.41
2022-06-27 20:58:00,,0832.3,5.00,0.00,28.9,27.5,00.0,37.7,30.9,15.5,0000.0,0003.93,0010.17,0003.42
2022-06-27 20:59:00,,0832.3,5.00,0.00,29.0,27.7,00.0,37.7,30.9,15.4,0000.0,0003.95,0009.83,0003.44
